User: anonymous   Login
Location: Alberta Star Party
(51.6612°N, 112.9089°W)
Time: 22:03:40
(UTC-06:00)
Language:

AO-Echo - Orbit

View from above orbital plane
View from above orbital plane
View from above satellite
View from above satellite

Ground track
Ground track

The orbit data is extracted from the following two-line orbital elements,

1 28375U 04025K   16119.36691074  .00000073  00000-0  34310-4 0  9995
2 28375  98.3255  56.3074 0083887  94.8513 266.2261 14.41772361622054
Epoch (UTC): 28 April 2016 08:48:21
Eccentricity: 0.0083887
inclination: 98.3255°
perigee height: 693 km
apogee height: 812 km
right ascension of ascending node: 56.3074°
argument of perigee: 94.8513°
revolutions per day: 14.41772361
mean anomaly at epoch: 266.2261°
orbit number at epoch: 62205

The dashed part of the orbit path shows where the satellite is in the earth's shadow,  

DLR